owner,sensor,date,latitude,longitude,vertical_datum,sea_water_practical_salinity,qcFlag 
TABS,ioos:station:wmo:42047:1,2012-09-03T00:00:00Z,27.8966,-93.5973,2.0,0.01,11111222 
TABS,ioos:station:wmo:42047:1,2012-09-03T00:30:00Z,27.8966,-93.5973,2.0,0.01,11111222 
TABS,ioos:station:wmo:42047:1,2012-09-03T01:00:00Z,27.8966,-93.5973,2.0,0.01,11111222 
TABS,ioos:station:wmo:42047:1,2012-09-03T01:30:00Z,27.8966,-93.5973,2.0,0.01,11111222 
TABS,ioos:station:wmo:42047:1,2012-09-03T02:00:00Z,27.8966,-93.5973,2.0,0.01,11111222 
TABS,ioos:station:wmo:42047:1,2012-09-03T02:30:00Z,27.8966,-93.5973,2.0,0.01,11111222 
TABS,ioos:station:wmo:42047:1,2012-09-03T03:00:00Z,27.8966,-93.5973,2.0,0.01,11111222 
TABS,ioos:station:wmo:42047:1,2012-09-03T03:30:00Z,27.8966,-93.5973,2.0,0.01,11111222 
TABS,ioos:station:wmo:42047:1,2012-09-03T04:00:00Z,27.8966,-93.5973,2.0,0.01,11111222 
TABS,ioos:station:wmo:42047:1,2012-09-03T04:30:00Z,27.8966,-93.5973,2.0,0.01,11111222 
TABS,ioos:station:wmo:42047:1,2012-09-03T05:00:00Z,27.8966,-93.5973,2.0,0.01,11111222 
TABS,ioos:station:wmo:42047:1,2012-09-03T05:30:00Z,27.8966,-93.5973,2.0,0.01,11111222 
TABS,ioos:station:wmo:42047:1,2012-09-03T06:00:00Z,27.8966,-93.5973,2.0,0.01,11111222 
TABS,ioos:station:wmo:42047:1,2012-09-03T06:30:00Z,27.8966,-93.5973,2.0,0.01,11111222 
TABS,ioos:station:wmo:42047:1,2012-09-03T07:00:00Z,27.8966,-93.5973,2.0,0.01,11111222 
TABS,ioos:station:wmo:42047:1,2012-09-03T07:30:00Z,27.8966,-93.5973,2.0,0.01,11111222 
TABS,ioos:station:wmo:42047:1,2012-09-03T08:00:00Z,27.8966,-93.5973,2.0,0.01,11111222 
TABS,ioos:station:wmo:42047:1,2012-09-03T08:30:00Z,27.8966,-93.5973,2.0,0.01,11111222 
TABS,ioos:station:wmo:42047:1,2012-09-03T09:00:00Z,27.8966,-93.5973,2.0,0.01,11111222 
TABS,ioos:station:wmo:42047:1,2012-09-03T09:30:00Z,27.8966,-93.5973,2.0,0.01,11111222 
TABS,ioos:station:wmo:42047:1,2012-09-03T10:00:00Z,27.8966,-93.5973,2.0,0.01,11111222 
TABS,ioos:station:wmo:42047:1,2012-09-03T10:30:00Z,27.8966,-93.5973,2.0,0.01,11111222 
TABS,ioos:station:wmo:42047:1,2012-09-03T11:00:00Z,27.8966,-93.5973,2.0,0.01,11111222 
TABS,ioos:station:wmo:42047:1,2012-09-03T11:30:00Z,27.8966,-93.5973,2.0,0.01,11111222 
TABS,ioos:station:wmo:42047:1,2012-09-03T12:00:00Z,27.8966,-93.5973,2.0,0.01,11111222 
TABS,ioos:station:wmo:42047:1,2012-09-03T12:30:00Z,27.8966,-93.5973,2.0,0.01,11111222 
TABS,ioos:station:wmo:42047:1,2012-09-03T13:00:00Z,27.8966,-93.5973,2.0,0.01,11111222 
TABS,ioos:station:wmo:42047:1,2012-09-03T13:30:00Z,27.8966,-93.5973,2.0,0.01,11111222 
TABS,ioos:station:wmo:42047:1,2012-09-03T14:00:00Z,27.8966,-93.5973,2.0,0.01,11111222 
TABS,ioos:station:wmo:42047:1,2012-09-03T14:30:00Z,27.8966,-93.5973,2.0,0.01,11111222 
TABS,ioos:station:wmo:42047:1,2012-09-03T15:00:00Z,27.8966,-93.5973,2.0,0.01,11111222 
TABS,ioos:station:wmo:42047:1,2012-09-03T15:30:00Z,27.8966,-93.5973,2.0,0.01,11111222 
TABS,ioos:station:wmo:42047:1,2012-09-03T16:00:00Z,27.8966,-93.5973,2.0,0.02,11111222 
TABS,ioos:station:wmo:42047:1,2012-09-03T16:30:00Z,27.8966,-93.5973,2.0,0.02,11111222 
TABS,ioos:station:wmo:42047:1,2012-09-03T17:00:00Z,27.8966,-93.5973,2.0,0.01,11111222 
TABS,ioos:station:wmo:42047:1,2012-09-03T17:30:00Z,27.8966,-93.5973,2.0,0.02,11111222 
TABS,ioos:station:wmo:42047:1,2012-09-03T18:00:00Z,27.8966,-93.5973,2.0,0.02,11111222 
TABS,ioos:station:wmo:42047:1,2012-09-03T18:30:00Z,27.8966,-93.5973,2.0,0.02,11111222 
TABS,ioos:station:wmo:42047:1,2012-09-03T19:00:00Z,27.8966,-93.5973,2.0,0.02,11111222 
TABS,ioos:station:wmo:42047:1,2012-09-03T19:30:00Z,27.8966,-93.5973,2.0,0.02,11111222 
TABS,ioos:station:wmo:42047:1,2012-09-03T20:00:00Z,27.8966,-93.5973,2.0,0.02,11111222 
TABS,ioos:station:wmo:42047:1,2012-09-03T20:30:00Z,27.8966,-93.5973,2.0,0.02,11111222 
TABS,ioos:station:wmo:42047:1,2012-09-03T21:00:00Z,27.8966,-93.5973,2.0,0.02,11111222 
TABS,ioos:station:wmo:42047:1,2012-09-03T21:30:00Z,27.8966,-93.5973,2.0,0.01,11111222 
TABS,ioos:station:wmo:42047:1,2012-09-03T22:00:00Z,27.8966,-93.5973,2.0,0.01,11111222 
TABS,ioos:station:wmo:42047:1,2012-09-03T22:30:00Z,27.8966,-93.5973,2.0,0.01,11111222 
TABS,ioos:station:wmo:42047:1,2012-09-03T23:00:00Z,27.8966,-93.5973,2.0,0.01,11111222 
TABS,ioos:station:wmo:42047:1,2012-09-03T23:30:00Z,27.8966,-93.5973,2.0,0.01,11111222 
TABS,ioos:station:wmo:42047:1,2012-09-04T00:00:00Z,27.8966,-93.5973,2.0,0.01,11111222 
TABS,ioos:station:wmo:42047:1,2012-09-04T00:30:00Z,27.8966,-93.5973,2.0,0.01,11111222 
TABS,ioos:station:wmo:42047:1,2012-09-04T01:00:00Z,27.8966,-93.5973,2.0,0.01,11111222 
TABS,ioos:station:wmo:42047:1,2012-09-04T01:30:00Z,27.8966,-93.5973,2.0,0.01,11111222 
TABS,ioos:station:wmo:42047:1,2012-09-04T02:00:00Z,27.8966,-93.5973,2.0,0.01,11111222 
TABS,ioos:station:wmo:42047:1,2012-09-04T02:30:00Z,27.8966,-93.5973,2.0,0.01,11111222 
TABS,ioos:station:wmo:42047:1,2012-09-04T03:00:00Z,27.8966,-93.5973,2.0,0.01,11111222 
TABS,ioos:station:wmo:42047:1,2012-09-04T03:30:00Z,27.8966,-93.5973,2.0,0.01,11111222 
TABS,ioos:station:wmo:42047:1,2012-09-04T04:00:00Z,27.8966,-93.5973,2.0,0.01,11111222 
TABS,ioos:station:wmo:42047:1,2012-09-04T04:30:00Z,27.8966,-93.5973,2.0,0.01,11111222 
TABS,ioos:station:wmo:42047:1,2012-09-04T05:00:00Z,27.8966,-93.5973,2.0,0.01,11111222 
TABS,ioos:station:wmo:42047:1,2012-09-04T05:30:00Z,27.8966,-93.5973,2.0,0.01,11111222 
TABS,ioos:station:wmo:42047:1,2012-09-04T06:00:00Z,27.8966,-93.5973,2.0,0.01,11111222 
TABS,ioos:station:wmo:42047:1,2012-09-04T06:30:00Z,27.8966,-93.5973,2.0,0.01,11111222 
TABS,ioos:station:wmo:42047:1,2012-09-04T07:00:00Z,27.8966,-93.5973,2.0,0.01,11111222 
TABS,ioos:station:wmo:42047:1,2012-09-04T07:30:00Z,27.8966,-93.5973,2.0,0.01,11111222 
TABS,ioos:station:wmo:42047:1,2012-09-04T08:00:00Z,27.8966,-93.5973,2.0,0.01,11111222 
TABS,ioos:station:wmo:42047:1,2012-09-04T08:30:00Z,27.8966,-93.5973,2.0,0.01,11111222 
TABS,ioos:station:wmo:42047:1,2012-09-04T09:00:00Z,27.8966,-93.5973,2.0,0.01,11111222 
TABS,ioos:station:wmo:42047:1,2012-09-04T09:30:00Z,27.8966,-93.5973,2.0,0.01,11111222 
TABS,ioos:station:wmo:42047:1,2012-09-04T10:00:00Z,27.8966,-93.5973,2.0,0.01,11111222 
TABS,ioos:station:wmo:42047:1,2012-09-04T10:30:00Z,27.8966,-93.5973,2.0,0.01,11111222 
TABS,ioos:station:wmo:42047:1,2012-09-04T11:00:00Z,27.8966,-93.5973,2.0,0.01,11111222 
TABS,ioos:station:wmo:42047:1,2012-09-04T11:30:00Z,27.8966,-93.5973,2.0,0.01,11111222 
TABS,ioos:station:wmo:42047:1,2012-09-04T12:00:00Z,27.8966,-93.5973,2.0,0.01,11111222 
TABS,ioos:station:wmo:42047:1,2012-09-04T12:30:00Z,27.8966,-93.5973,2.0,0.01,11111222 
TABS,ioos:station:wmo:42047:1,2012-09-04T13:00:00Z,27.8966,-93.5973,2.0,0.01,11111222 
TABS,ioos:station:wmo:42047:1,2012-09-04T13:30:00Z,27.8966,-93.5973,2.0,0.01,11111222 
TABS,ioos:station:wmo:42047:1,2012-09-04T14:00:00Z,27.8966,-93.5973,2.0,0.01,11111222 
TABS,ioos:station:wmo:42047:1,2012-09-04T14:30:00Z,27.8966,-93.5973,2.0,0.01,11111222 
TABS,ioos:station:wmo:42047:1,2012-09-04T15:00:00Z,27.8966,-93.5973,2.0,0.01,11111222 
TABS,ioos:station:wmo:42047:1,2012-09-04T15:30:00Z,27.8966,-93.5973,2.0,0.01,11111222 
TABS,ioos:station:wmo:42047:1,2012-09-04T16:00:00Z,27.8966,-93.5973,2.0,0.02,11111222 
TABS,ioos:station:wmo:42047:1,2012-09-04T16:30:00Z,27.8966,-93.5973,2.0,0.02,11111222 
TABS,ioos:station:wmo:42047:1,2012-09-04T17:00:00Z,27.8966,-93.5973,2.0,0.02,11111222 
TABS,ioos:station:wmo:42047:1,2012-09-04T17:30:00Z,27.8966,-93.5973,2.0,0.02,11111222 
TABS,ioos:station:wmo:42047:1,2012-09-04T18:00:00Z,27.8966,-93.5973,2.0,0.02,11111222 
TABS,ioos:station:wmo:42047:1,2012-09-04T18:30:00Z,27.8966,-93.5973,2.0,0.02,11111222 
TABS,ioos:station:wmo:42047:1,2012-09-04T19:00:00Z,27.8966,-93.5973,2.0,0.02,11111222 
TABS,ioos:station:wmo:42047:1,2012-09-04T19:30:00Z,27.8966,-93.5973,2.0,0.02,11111222 
TABS,ioos:station:wmo:42047:1,2012-09-04T20:00:00Z,27.8966,-93.5973,2.0,0.02,11111222 
TABS,ioos:station:wmo:42047:1,2012-09-04T20:30:00Z,27.8966,-93.5973,2.0,0.02,11111222 
TABS,ioos:station:wmo:42047:1,2012-09-04T21:00:00Z,27.8966,-93.5973,2.0,0.02,11111222 
TABS,ioos:station:wmo:42047:1,2012-09-04T21:30:00Z,27.8966,-93.5973,2.0,0.02,11111222 
TABS,ioos:station:wmo:42047:1,2012-09-04T22:00:00Z,27.8966,-93.5973,2.0,0.02,11111222 
TABS,ioos:station:wmo:42047:1,2012-09-04T22:30:00Z,27.8966,-93.5973,2.0,0.01,11111222 
TABS,ioos:station:wmo:42047:1,2012-09-04T23:00:00Z,27.8966,-93.5973,2.0,0.01,11111222 
TABS,ioos:station:wmo:42047:1,2012-09-04T23:30:00Z,27.8966,-93.5973,2.0,0.01,11111222 
TABS,ioos:station:wmo:42047:1,2012-09-05T00:00:00Z,27.8966,-93.5973,2.0,0.01,11111222 
TABS,ioos:station:wmo:42047:1,2012-09-05T00:30:00Z,27.8966,-93.5973,2.0,35.03,11111222 
TABS,ioos:station:wmo:42047:1,2012-09-05T01:00:00Z,27.8966,-93.5973,2.0,35.13,11111222 
TABS,ioos:station:wmo:42047:1,2012-09-05T01:30:00Z,27.8966,-93.5973,2.0,35.16,11111222 
TABS,ioos:station:wmo:42047:1,2012-09-05T02:00:00Z,27.8966,-93.5973,2.0,35.13,11111222 
TABS,ioos:station:wmo:42047:1,2012-09-05T02:30:00Z,27.8966,-93.5973,2.0,35.13,11111222 
TABS,ioos:station:wmo:42047:1,2012-09-05T03:00:00Z,27.8966,-93.5973,2.0,35.12,11111222 
TABS,ioos:station:wmo:42047:1,2012-09-05T03:30:00Z,27.8966,-93.5973,2.0,35.12,11111222 
TABS,ioos:station:wmo:42047:1,2012-09-05T04:00:00Z,27.8966,-93.5973,2.0,35.12,11111222 
TABS,ioos:station:wmo:42047:1,2012-09-05T04:30:00Z,27.8966,-93.5973,2.0,35.11,11111222 
TABS,ioos:station:wmo:42047:1,2012-09-05T05:00:00Z,27.8966,-93.5973,2.0,35.11,11111222 
TABS,ioos:station:wmo:42047:1,2012-09-05T05:30:00Z,27.8966,-93.5973,2.0,35.12,11111222 
TABS,ioos:station:wmo:42047:1,2012-09-05T06:00:00Z,27.8966,-93.5973,2.0,35.12,11111222 
TABS,ioos:station:wmo:42047:1,2012-09-05T06:30:00Z,27.8966,-93.5973,2.0,35.12,11111222 
TABS,ioos:station:wmo:42047:1,2012-09-05T07:00:00Z,27.8966,-93.5973,2.0,35.14,11111222 
TABS,ioos:station:wmo:42047:1,2012-09-05T07:30:00Z,27.8966,-93.5973,2.0,35.14,11111222 
TABS,ioos:station:wmo:42047:1,2012-09-05T08:00:00Z,27.8966,-93.5973,2.0,35.15,11111222 
TABS,ioos:station:wmo:42047:1,2012-09-05T08:30:00Z,27.8966,-93.5973,2.0,35.17,11111222 
TABS,ioos:station:wmo:42047:1,2012-09-05T09:00:00Z,27.8966,-93.5973,2.0,35.17,11111222 
TABS,ioos:station:wmo:42047:1,2012-09-05T09:30:00Z,27.8966,-93.5973,2.0,35.18,11111222 
TABS,ioos:station:wmo:42047:1,2012-09-05T10:00:00Z,27.8966,-93.5973,2.0,35.18,11111222 
TABS,ioos:station:wmo:42047:1,2012-09-05T10:30:00Z,27.8966,-93.5973,2.0,35.18,11111222 
TABS,ioos:station:wmo:42047:1,2012-09-05T11:00:00Z,27.8966,-93.5973,2.0,35.19,11111222 
TABS,ioos:station:wmo:42047:1,2012-09-05T11:30:00Z,27.8966,-93.5973,2.0,35.2,11111222 
TABS,ioos:station:wmo:42047:1,2012-09-05T12:00:00Z,27.8966,-93.5973,2.0,35.21,11111222 
TABS,ioos:station:wmo:42047:1,2012-09-05T12:30:00Z,27.8966,-93.5973,2.0,35.22,11111222 
TABS,ioos:station:wmo:42047:1,2012-09-05T13:00:00Z,27.8966,-93.5973,2.0,35.23,11111222 
TABS,ioos:station:wmo:42047:1,2012-09-05T13:30:00Z,27.8966,-93.5973,2.0,35.24,11111222 
TABS,ioos:station:wmo:42047:1,2012-09-05T14:00:00Z,27.8966,-93.5973,2.0,35.25,11111222 
TABS,ioos:station:wmo:42047:1,2012-09-05T14:30:00Z,27.8966,-93.5973,2.0,35.29,11111222 
TABS,ioos:station:wmo:42047:1,2012-09-05T15:00:00Z,27.8966,-93.5973,2.0,35.32,11111222 
TABS,ioos:station:wmo:42047:1,2012-09-05T15:30:00Z,27.8966,-93.5973,2.0,35.3,11111222 
TABS,ioos:station:wmo:42047:1,2012-09-05T16:00:00Z,27.8966,-93.5973,2.0,35.31,11111222 
TABS,ioos:station:wmo:42047:1,2012-09-05T16:30:00Z,27.8966,-93.5973,2.0,35.32,11111222 
TABS,ioos:station:wmo:42047:1,2012-09-05T17:00:00Z,27.8966,-93.5973,2.0,35.33,11111222 
TABS,ioos:station:wmo:42047:1,2012-09-05T17:30:00Z,27.8966,-93.5973,2.0,35.36,11111222 
TABS,ioos:station:wmo:42047:1,2012-09-05T18:00:00Z,27.8966,-93.5973,2.0,35.38,11111222 
TABS,ioos:station:wmo:42047:1,2012-09-05T18:30:00Z,27.8966,-93.5973,2.0,35.33,11111222 
TABS,ioos:station:wmo:42047:1,2012-09-05T19:00:00Z,27.8966,-93.5973,2.0,35.29,11111222 
TABS,ioos:station:wmo:42047:1,2012-09-05T19:30:00Z,27.8966,-93.5973,2.0,35.28,11111222 
TABS,ioos:station:wmo:42047:1,2012-09-05T20:00:00Z,27.8966,-93.5973,2.0,35.27,11111222 
TABS,ioos:station:wmo:42047:1,2012-09-05T20:30:00Z,27.8966,-93.5973,2.0,35.31,11111222 
TABS,ioos:station:wmo:42047:1,2012-09-05T21:00:00Z,27.8966,-93.5973,2.0,35.32,11111222 
TABS,ioos:station:wmo:42047:1,2012-09-05T21:30:00Z,27.8966,-93.5973,2.0,35.36,11111222 
TABS,ioos:station:wmo:42047:1,2012-09-05T22:00:00Z,27.8966,-93.5973,2.0,35.37,11111222 
TABS,ioos:station:wmo:42047:1,2012-09-05T22:30:00Z,27.8966,-93.5973,2.0,35.34,11111222 
TABS,ioos:station:wmo:42047:1,2012-09-05T23:00:00Z,27.8966,-93.5973,2.0,35.35,11111222 
TABS,ioos:station:wmo:42047:1,2012-09-05T23:30:00Z,27.8966,-93.5973,2.0,35.37,11111222 
TABS,ioos:station:wmo:42047:1,2012-09-06T00:00:00Z,27.8966,-93.5973,2.0,35.35,11111222 
TABS,ioos:station:wmo:42047:1,2012-09-06T00:30:00Z,27.8966,-93.5973,2.0,35.36,11111222 
TABS,ioos:station:wmo:42047:1,2012-09-06T01:00:00Z,27.8966,-93.5973,2.0,35.34,11111222 
TABS,ioos:station:wmo:42047:1,2012-09-06T01:30:00Z,27.8966,-93.5973,2.0,35.29,11111222 
TABS,ioos:station:wmo:42047:1,2012-09-06T02:00:00Z,27.8966,-93.5973,2.0,35.34,11111222 
TABS,ioos:station:wmo:42047:1,2012-09-06T02:30:00Z,27.8966,-93.5973,2.0,35.29,11111222 
TABS,ioos:station:wmo:42047:1,2012-09-06T03:00:00Z,27.8966,-93.5973,2.0,35.27,11111222 
TABS,ioos:station:wmo:42047:1,2012-09-06T03:30:00Z,27.8966,-93.5973,2.0,35.26,11111222 
TABS,ioos:station:wmo:42047:1,2012-09-06T04:00:00Z,27.8966,-93.5973,2.0,35.25,11111222 
TABS,ioos:station:wmo:42047:1,2012-09-06T04:30:00Z,27.8966,-93.5973,2.0,35.25,11111222 
TABS,ioos:station:wmo:42047:1,2012-09-06T05:00:00Z,27.8966,-93.5973,2.0,35.25,11111222 
TABS,ioos:station:wmo:42047:1,2012-09-06T05:30:00Z,27.8966,-93.5973,2.0,35.25,11111222 
TABS,ioos:station:wmo:42047:1,2012-09-06T06:00:00Z,27.8966,-93.5973,2.0,35.24,11111222 
TABS,ioos:station:wmo:42047:1,2012-09-06T06:30:00Z,27.8966,-93.5973,2.0,35.25,11111222 
TABS,ioos:station:wmo:42047:1,2012-09-06T07:00:00Z,27.8966,-93.5973,2.0,35.25,11111222 
TABS,ioos:station:wmo:42047:1,2012-09-06T07:30:00Z,27.8966,-93.5973,2.0,35.25,11111222 
TABS,ioos:station:wmo:42047:1,2012-09-06T08:00:00Z,27.8966,-93.5973,2.0,35.25,11111222 
TABS,ioos:station:wmo:42047:1,2012-09-06T08:30:00Z,27.8966,-93.5973,2.0,35.26,11111222 
TABS,ioos:station:wmo:42047:1,2012-09-06T09:00:00Z,27.8966,-93.5973,2.0,35.27,11111222 
TABS,ioos:station:wmo:42047:1,2012-09-06T09:30:00Z,27.8966,-93.5973,2.0,35.28,11111222 
TABS,ioos:station:wmo:42047:1,2012-09-06T10:00:00Z,27.8966,-93.5973,2.0,35.3,11111222 
TABS,ioos:station:wmo:42047:1,2012-09-06T10:30:00Z,27.8966,-93.5973,2.0,35.35,11111222 
TABS,ioos:station:wmo:42047:1,2012-09-06T11:00:00Z,27.8966,-93.5973,2.0,35.4,11111222 
TABS,ioos:station:wmo:42047:1,2012-09-06T11:30:00Z,27.8966,-93.5973,2.0,35.41,11111222 
TABS,ioos:station:wmo:42047:1,2012-09-06T12:00:00Z,27.8966,-93.5973,2.0,35.42,11111222 
TABS,ioos:station:wmo:42047:1,2012-09-06T12:30:00Z,27.8966,-93.5973,2.0,35.4,11111222 
TABS,ioos:station:wmo:42047:1,2012-09-06T13:00:00Z,27.8966,-93.5973,2.0,35.4,11111222 
TABS,ioos:station:wmo:42047:1,2012-09-06T13:30:00Z,27.8966,-93.5973,2.0,35.4,11111222 
TABS,ioos:station:wmo:42047:1,2012-09-06T14:00:00Z,27.8966,-93.5973,2.0,35.39,11111222 
TABS,ioos:station:wmo:42047:1,2012-09-06T14:30:00Z,27.8966,-93.5973,2.0,35.4,11111222 
TABS,ioos:station:wmo:42047:1,2012-09-06T15:00:00Z,27.8966,-93.5973,2.0,35.45,11111222 
TABS,ioos:station:wmo:42047:1,2012-09-06T15:30:00Z,27.8966,-93.5973,2.0,35.5,11111222 
TABS,ioos:station:wmo:42047:1,2012-09-06T16:00:00Z,27.8966,-93.5973,2.0,35.56,11111222 
TABS,ioos:station:wmo:42047:1,2012-09-06T16:30:00Z,27.8966,-93.5973,2.0,35.58,11111222 
TABS,ioos:station:wmo:42047:1,2012-09-06T17:00:00Z,27.8966,-93.5973,2.0,35.5,11111222 
TABS,ioos:station:wmo:42047:1,2012-09-06T17:30:00Z,27.8966,-93.5973,2.0,35.46,11111222 
TABS,ioos:station:wmo:42047:1,2012-09-06T18:00:00Z,27.8966,-93.5973,2.0,35.35,11111222 
TABS,ioos:station:wmo:42047:1,2012-09-06T18:30:00Z,27.8966,-93.5973,2.0,35.33,11111222 
TABS,ioos:station:wmo:42047:1,2012-09-06T19:00:00Z,27.8966,-93.5973,2.0,35.3,11111222 
TABS,ioos:station:wmo:42047:1,2012-09-06T19:30:00Z,27.8966,-93.5973,2.0,35.3,11111222 
TABS,ioos:station:wmo:42047:1,2012-09-06T20:00:00Z,27.8966,-93.5973,2.0,35.27,11111222 
TABS,ioos:station:wmo:42047:1,2012-09-06T20:30:00Z,27.8966,-93.5973,2.0,35.26,11111222 
TABS,ioos:station:wmo:42047:1,2012-09-06T21:00:00Z,27.8966,-93.5973,2.0,35.25,11111222 
TABS,ioos:station:wmo:42047:1,2012-09-06T21:30:00Z,27.8966,-93.5973,2.0,35.25,11111222 
TABS,ioos:station:wmo:42047:1,2012-09-06T22:00:00Z,27.8966,-93.5973,2.0,35.26,11111222 
TABS,ioos:station:wmo:42047:1,2012-09-06T22:30:00Z,27.8966,-93.5973,2.0,35.28,11111222 
TABS,ioos:station:wmo:42047:1,2012-09-06T23:00:00Z,27.8966,-93.5973,2.0,35.25,11111222 
TABS,ioos:station:wmo:42047:1,2012-09-06T23:30:00Z,27.8966,-93.5973,2.0,35.27,11111222 
TABS,ioos:station:wmo:42047:1,2012-09-07T00:00:00Z,27.8966,-93.5973,2.0,35.28,11111222 
TABS,ioos:station:wmo:42047:1,2012-09-07T00:30:00Z,27.8966,-93.5973,2.0,35.28,11111222 
TABS,ioos:station:wmo:42047:1,2012-09-07T01:00:00Z,27.8966,-93.5973,2.0,35.28,11111222 
TABS,ioos:station:wmo:42047:1,2012-09-07T01:30:00Z,27.8966,-93.5973,2.0,35.28,11111222 
TABS,ioos:station:wmo:42047:1,2012-09-07T02:00:00Z,27.8966,-93.5973,2.0,35.29,11111222 
TABS,ioos:station:wmo:42047:1,2012-09-07T02:30:00Z,27.8966,-93.5973,2.0,35.29,11111222 
TABS,ioos:station:wmo:42047:1,2012-09-07T03:00:00Z,27.8966,-93.5973,2.0,35.29,11111222 
TABS,ioos:station:wmo:42047:1,2012-09-07T03:30:00Z,27.8966,-93.5973,2.0,35.29,11111222 
TABS,ioos:station:wmo:42047:1,2012-09-07T04:00:00Z,27.8966,-93.5973,2.0,35.29,11111222 
TABS,ioos:station:wmo:42047:1,2012-09-07T04:30:00Z,27.8966,-93.5973,2.0,35.28,11111222 
TABS,ioos:station:wmo:42047:1,2012-09-07T05:00:00Z,27.8966,-93.5973,2.0,35.28,11111222 
TABS,ioos:station:wmo:42047:1,2012-09-07T05:30:00Z,27.8966,-93.5973,2.0,35.28,11111222 
TABS,ioos:station:wmo:42047:1,2012-09-07T06:00:00Z,27.8966,-93.5973,2.0,35.27,11111222 
TABS,ioos:station:wmo:42047:1,2012-09-07T06:30:00Z,27.8966,-93.5973,2.0,35.28,11111222 
TABS,ioos:station:wmo:42047:1,2012-09-07T07:00:00Z,27.8966,-93.5973,2.0,35.27,11111222 
TABS,ioos:station:wmo:42047:1,2012-09-07T07:30:00Z,27.8966,-93.5973,2.0,35.28,11111222 
TABS,ioos:station:wmo:42047:1,2012-09-07T08:00:00Z,27.8966,-93.5973,2.0,35.29,11111222 
TABS,ioos:station:wmo:42047:1,2012-09-07T08:30:00Z,27.8966,-93.5973,2.0,35.29,11111222 
TABS,ioos:station:wmo:42047:1,2012-09-07T09:00:00Z,27.8966,-93.5973,2.0,35.29,11111222 
TABS,ioos:station:wmo:42047:1,2012-09-07T09:30:00Z,27.8966,-93.5973,2.0,35.29,11111222 
TABS,ioos:station:wmo:42047:1,2012-09-07T10:00:00Z,27.8966,-93.5973,2.0,35.3,11111222 
TABS,ioos:station:wmo:42047:1,2012-09-07T10:30:00Z,27.8966,-93.5973,2.0,35.3,11111222 
TABS,ioos:station:wmo:42047:1,2012-09-07T11:00:00Z,27.8966,-93.5973,2.0,35.3,11111222 
TABS,ioos:station:wmo:42047:1,2012-09-07T11:30:00Z,27.8966,-93.5973,2.0,35.29,11111222 
TABS,ioos:station:wmo:42047:1,2012-09-07T12:00:00Z,27.8966,-93.5973,2.0,35.29,11111222 
TABS,ioos:station:wmo:42047:1,2012-09-07T12:30:00Z,27.8966,-93.5973,2.0,35.29,11111222 
TABS,ioos:station:wmo:42047:1,2012-09-07T13:00:00Z,27.8966,-93.5973,2.0,35.29,11111222 
TABS,ioos:station:wmo:42047:1,2012-09-07T13:30:00Z,27.8966,-93.5973,2.0,35.3,11111222 
TABS,ioos:station:wmo:42047:1,2012-09-07T14:00:00Z,27.8966,-93.5973,2.0,35.31,11111222 
TABS,ioos:station:wmo:42047:1,2012-09-07T14:30:00Z,27.8966,-93.5973,2.0,35.31,11111222 
TABS,ioos:station:wmo:42047:1,2012-09-07T15:00:00Z,27.8966,-93.5973,2.0,35.33,11111222 
TABS,ioos:station:wmo:42047:1,2012-09-07T15:30:00Z,27.8966,-93.5973,2.0,35.33,11111222 
TABS,ioos:station:wmo:42047:1,2012-09-07T16:00:00Z,27.8966,-93.5973,2.0,35.36,11111222 
TABS,ioos:station:wmo:42047:1,2012-09-07T16:30:00Z,27.8966,-93.5973,2.0,35.42,11111222 
TABS,ioos:station:wmo:42047:1,2012-09-07T17:00:00Z,27.8966,-93.5973,2.0,35.52,11111222 
TABS,ioos:station:wmo:42047:1,2012-09-07T17:30:00Z,27.8966,-93.5973,2.0,35.55,11111222 
TABS,ioos:station:wmo:42047:1,2012-09-07T18:00:00Z,27.8966,-93.5973,2.0,35.55,11111222 
TABS,ioos:station:wmo:42047:1,2012-09-07T18:30:00Z,27.8966,-93.5973,2.0,35.57,11111222 
TABS,ioos:station:wmo:42047:1,2012-09-07T19:00:00Z,27.8966,-93.5973,2.0,35.57,11111222 
TABS,ioos:station:wmo:42047:1,2012-09-07T19:30:00Z,27.8966,-93.5973,2.0,35.58,11111222 
TABS,ioos:station:wmo:42047:1,2012-09-07T20:00:00Z,27.8966,-93.5973,2.0,35.58,11111222 
TABS,ioos:station:wmo:42047:1,2012-09-07T20:30:00Z,27.8966,-93.5973,2.0,35.58,11111222 
TABS,ioos:station:wmo:42047:1,2012-09-07T21:00:00Z,27.8966,-93.5973,2.0,35.58,11111222 
TABS,ioos:station:wmo:42047:1,2012-09-07T21:30:00Z,27.8966,-93.5973,2.0,35.6,11111222 
TABS,ioos:station:wmo:42047:1,2012-09-07T22:00:00Z,27.8966,-93.5973,2.0,35.6,11111222 
TABS,ioos:station:wmo:42047:1,2012-09-07T22:30:00Z,27.8966,-93.5973,2.0,35.56,11111222 
TABS,ioos:station:wmo:42047:1,2012-09-07T23:00:00Z,27.8966,-93.5973,2.0,35.55,11111222 
TABS,ioos:station:wmo:42047:1,2012-09-07T23:30:00Z,27.8966,-93.5973,2.0,35.54,11111222 
TABS,ioos:station:wmo:42047:1,2012-09-08T00:00:00Z,27.8966,-93.5973,2.0,35.52,11111222 
TABS,ioos:station:wmo:42047:1,2012-09-08T00:30:00Z,27.8966,-93.5973,2.0,35.51,11111222 
TABS,ioos:station:wmo:42047:1,2012-09-08T01:00:00Z,27.8966,-93.5973,2.0,35.51,11111222 
TABS,ioos:station:wmo:42047:1,2012-09-08T01:30:00Z,27.8966,-93.5973,2.0,35.52,11111222 
TABS,ioos:station:wmo:42047:1,2012-09-08T02:00:00Z,27.8966,-93.5973,2.0,35.57,11111222 
TABS,ioos:station:wmo:42047:1,2012-09-08T02:30:00Z,27.8966,-93.5973,2.0,35.55,11111222 
TABS,ioos:station:wmo:42047:1,2012-09-08T03:00:00Z,27.8966,-93.5973,2.0,35.54,11111222 
TABS,ioos:station:wmo:42047:1,2012-09-08T03:30:00Z,27.8966,-93.5973,2.0,35.53,11111222 
TABS,ioos:station:wmo:42047:1,2012-09-08T04:00:00Z,27.8966,-93.5973,2.0,35.54,11111222 
TABS,ioos:station:wmo:42047:1,2012-09-08T04:30:00Z,27.8966,-93.5973,2.0,35.55,11111222 
TABS,ioos:station:wmo:42047:1,2012-09-08T05:00:00Z,27.8966,-93.5973,2.0,35.55,11111222 
TABS,ioos:station:wmo:42047:1,2012-09-08T05:30:00Z,27.8966,-93.5973,2.0,35.56,11111222 
TABS,ioos:station:wmo:42047:1,2012-09-08T06:00:00Z,27.8966,-93.5973,2.0,35.58,11111222 
TABS,ioos:station:wmo:42047:1,2012-09-08T06:30:00Z,27.8966,-93.5973,2.0,35.61,11111222 
TABS,ioos:station:wmo:42047:1,2012-09-08T07:00:00Z,27.8966,-93.5973,2.0,35.58,11111222 
TABS,ioos:station:wmo:42047:1,2012-09-08T07:30:00Z,27.8966,-93.5973,2.0,35.62,11111222 
TABS,ioos:station:wmo:42047:1,2012-09-08T08:00:00Z,27.8966,-93.5973,2.0,35.64,11111222 
TABS,ioos:station:wmo:42047:1,2012-09-08T08:30:00Z,27.8966,-93.5973,2.0,35.65,11111222 
TABS,ioos:station:wmo:42047:1,2012-09-08T09:00:00Z,27.8966,-93.5973,2.0,35.69,11111222 
TABS,ioos:station:wmo:42047:1,2012-09-08T09:30:00Z,27.8966,-93.5973,2.0,35.76,11111222 
TABS,ioos:station:wmo:42047:1,2012-09-08T10:00:00Z,27.8966,-93.5973,2.0,35.75,11111222 
TABS,ioos:station:wmo:42047:1,2012-09-08T10:30:00Z,27.8966,-93.5973,2.0,35.75,11111222 
TABS,ioos:station:wmo:42047:1,2012-09-08T11:00:00Z,27.8966,-93.5973,2.0,35.76,11111222 
TABS,ioos:station:wmo:42047:1,2012-09-08T11:30:00Z,27.8966,-93.5973,2.0,35.74,11111222 
TABS,ioos:station:wmo:42047:1,2012-09-08T12:00:00Z,27.8966,-93.5973,2.0,35.72,11111222 
TABS,ioos:station:wmo:42047:1,2012-09-08T12:30:00Z,27.8966,-93.5973,2.0,35.69,11111222 
TABS,ioos:station:wmo:42047:1,2012-09-08T13:00:00Z,27.8966,-93.5973,2.0,35.68,11111222 
TABS,ioos:station:wmo:42047:1,2012-09-08T13:30:00Z,27.8966,-93.5973,2.0,35.67,11111222 
TABS,ioos:station:wmo:42047:1,2012-09-08T14:00:00Z,27.8966,-93.5973,2.0,35.64,11111222 
TABS,ioos:station:wmo:42047:1,2012-09-08T14:30:00Z,27.8966,-93.5973,2.0,35.61,11111222 
TABS,ioos:station:wmo:42047:1,2012-09-08T15:00:00Z,27.8966,-93.5973,2.0,35.58,11111222 
TABS,ioos:station:wmo:42047:1,2012-09-08T15:30:00Z,27.8966,-93.5973,2.0,35.58,11111222 
TABS,ioos:station:wmo:42047:1,2012-09-08T16:00:00Z,27.8966,-93.5973,2.0,35.53,11111222 